| time (UTC) | temp F | wind direction | speed MPH | gust MPH | rain 1hr in | rain 24hr in | rain mn in | humidity % | barometer mb |
| 20260903021122 | 80 | 253 | 0.0 | 2.0 | 0.00 | 0.00 | 0.00 | 89 | 1012.9 |
| 20260903020847 | 80 | 255 | 0.0 | 2.0 | 0.00 | 0.00 | 0.00 | 88 | 1012.5 |
| 20260903020134 | 80 | 280 | 1.0 | 2.0 | 0.00 | 0.00 | 0.00 | 87 | 1012.9 |
| 20260903015619 | 80 | 301 | 0.0 | 2.0 | 0.00 | 0.00 | 0.00 | 87 | 1012.5 |
| 20260903015120 | 81 | 296 | 1.0 | 2.0 | 0.00 | 0.00 | 0.00 | 87 | 1012.5 |
| 20260903014620 | 81 | 306 | 2.0 | 2.0 | 0.00 | 0.00 | 0.00 | 86 | 1012.5 |
| 20260903014339 | 81 | 269 | 2.0 | 2.0 | 0.00 | 0.00 | 0.00 | 85 | 1012.5 |
| 20260903013619 | 81 | 269 | 0.0 | 2.0 | 0.00 | 0.00 | 0.00 | 85 | 1012.2 |
| 20260903013118 | 82 | 239 | 1.0 | 2.0 | 0.00 | 0.00 | 0.00 | 84 | 1012.2 |
| 20260903012617 | 82 | 247 | 2.0 | 2.0 | 0.00 | 0.00 | 0.00 | 84 | 1012.2 |
| 20260903012116 | 82 | 230 | 2.0 | 2.0 | 0.00 | 0.00 | 0.00 | 83 | 1012.2 |
| 20260903011836 | 82 | 241 | 1.0 | 2.0 | 0.00 | 0.00 | 0.00 | 83 | 1012.2 |
| 20260903011115 | 82 | 242 | 2.0 | 2.0 | 0.00 | 0.00 | 0.00 | 82 | 1012.2 |
| 20260903010614 | 83 | 241 | 1.0 | 2.0 | 0.00 | 0.00 | 0.00 | 81 | 1011.9 |
| 20260903010117 | 83 | 279 | 0.0 | 2.0 | 0.00 | 0.00 | 0.00 | 81 | 1011.9 |
| 20260903005612 | 83 | 269 | 0.0 | 2.0 | 0.00 | 0.00 | 0.00 | 80 | 1012.2 |
| 20260903005114 | 83 | 242 | 2.0 | 3.0 | 0.00 | 0.00 | 0.00 | 79 | 1011.9 |
| 20260903004613 | 84 | 208 | 0.0 | 3.0 | 0.00 | 0.00 | 0.00 | 79 | 1011.9 |
| 20260903004114 | 84 | 219 | 1.0 | 3.0 | 0.00 | 0.00 | 0.00 | 79 | 1011.9 |
| 20260903003833 | 84 | 241 | 1.0 | 4.0 | 0.00 | 0.00 | 0.00 | 78 | 1011.9 |
| 20260903003118 | 84 | 266 | 2.0 | 3.0 | 0.00 | 0.00 | 0.00 | 78 | 1011.9 |
| 20260903002610 | 85 | 237 | 1.0 | 3.0 | 0.00 | 0.00 | 0.00 | 77 | 1011.5 |
| 20260903002116 | 85 | 218 | 0.0 | 2.0 | 0.00 | 0.00 | 0.00 | 77 | 1011.5 |
| 20260903001610 | 85 | 237 | 2.0 | 2.0 | 0.00 | 0.00 | 0.00 | 77 | 1011.9 |
| 20260903001109 | 85 | 249 | 2.0 | 3.0 | 0.00 | 0.00 | 0.00 | 77 | 1011.9 |
| 20260903000609 | 86 | 229 | 2.0 | 3.0 | 0.00 | 0.00 | 0.00 | 76 | 1011.9 |
| 20260903000120 | 86 | 250 | 1.0 | 4.0 | 0.00 | 0.00 | 0.00 | 76 | 1011.9 |
| 20260902235608 | 86 | 244 | 2.0 | 4.0 | 0.00 | 0.00 | 0.00 | 76 | 1011.9 |
| 20260902235335 | 86 | 244 | 3.0 | 3.0 | 0.00 | 0.00 | 0.00 | 76 | 1011.9 |
| 20260902234608 | 86 | 243 | 2.0 | 3.0 | 0.00 | 0.00 | 0.00 | 77 | 1011.9 |
| 20260902234104 | 87 | 253 | 2.0 | 2.0 | 0.00 | 0.00 | 0.00 | 77 | 1011.9 |
| 20260902233607 | 87 | 216 | 0.0 | 3.0 | 0.00 | 0.00 | 0.00 | 76 | 1011.5 |
| 20260902233105 | 87 | 140 | 2.0 | 3.0 | 0.00 | 0.00 | 0.00 | 76 | 1011.9 |
| 20260902232607 | 87 | 265 | 1.0 | 2.0 | 0.00 | 0.00 | 0.00 | 75 | 1011.9 |
| 20260902232103 | 87 | 266 | 0.0 | 3.0 | 0.00 | 0.00 | 0.00 | 75 | 1011.9 |
| 20260902231603 | 87 | 266 | 2.0 | 3.0 | 0.00 | 0.00 | 0.00 | 74 | 1012.2 |
| 20260902231103 | 88 | 237 | 1.0 | 3.0 | 0.00 | 0.00 | 0.00 | 74 | 1011.9 |
| 20260902230601 | 88 | 231 | 2.0 | 3.0 | 0.00 | 0.00 | 0.00 | 73 | 1012.2 |
| 20260902230108 | 88 | 269 | 1.0 | 4.0 | 0.00 | 0.00 | 0.00 | 72 | 1011.9 |
| 20260902225601 | 88 | 253 | 2.0 | 4.0 | 0.00 | 0.00 | 0.00 | 72 | 1012.2 |
| 20260902225059 | 88 | 245 | 2.0 | 3.0 | 0.00 | 0.00 | 0.00 | 72 | 1012.2 |
| 20260902224600 | 88 | 261 | 2.0 | 3.0 | 0.00 | 0.00 | 0.00 | 73 | 1012.2 |
| 20260902224100 | 88 | 272 | 2.0 | 3.0 | 0.00 | 0.00 | 0.00 | 73 | 1012.2 |
| 20260902223559 | 88 | 264 | 2.0 | 4.0 | 0.00 | 0.00 | 0.00 | 72 | 1012.2 |
| 20260902223057 | 89 | 261 | 2.0 | 4.0 | 0.00 | 0.00 | 0.00 | 71 | 1012.5 |
| 20260902222558 | 89 | 268 | 2.0 | 5.0 | 0.00 | 0.00 | 0.00 | 70 | 1012.5 |
| 20260902222057 | 89 | 258 | 2.0 | 5.0 | 0.00 | 0.00 | 0.00 | 69 | 1012.2 |
| 20260902221558 | 89 | 274 | 1.0 | 4.0 | 0.00 | 0.00 | 0.00 | 69 | 1012.2 |
| 20260902221326 | 89 | 257 | 2.0 | 5.0 | 0.00 | 0.00 | 0.00 | 67 | 1012.2 |
| 20260902220556 | 90 | 280 | 2.0 | 6.0 | 0.00 | 0.00 | 0.00 | 66 | 1012.2 |
| 20260902220108 | 90 | 277 | 3.0 | 6.0 | 0.00 | 0.00 | 0.00 | 65 | 1012.2 |
| 20260902215554 | 90 | 268 | 2.0 | 6.0 | 0.00 | 0.00 | 0.00 | 66 | 1012.5 |
| 20260902215055 | 90 | 272 | 4.0 | 6.0 | 0.00 | 0.00 | 0.00 | 66 | 1012.2 |
| 20260902214554 | 90 | 261 | 2.0 | 6.0 | 0.00 | 0.00 | 0.00 | 66 | 1012.2 |
| 20260902214054 | 91 | 274 | 3.0 | 6.0 | 0.00 | 0.00 | 0.00 | 64 | 1012.5 |
| 20260902213552 | 91 | 259 | 3.0 | 7.0 | 0.00 | 0.00 | 0.00 | 65 | 1012.2 |
| 20260902213053 | 91 | 269 | 1.0 | 7.0 | 0.00 | 0.00 | 0.00 | 64 | 1012.2 |
| 20260902212816 | 91 | 244 | 3.0 | 7.0 | 0.00 | 0.00 | 0.00 | 65 | 1012.5 |
| 20260902212704 | 91 | 260 | 4.0 | 7.0 | 0.00 | 0.00 | 0.00 | 63 | 1012.5 |
| 20260902211818 | 91 | 257 | 4.0 | 8.0 | 0.00 | 0.00 | 0.00 | 65 | 1012.2 |
| 20260902211102 | 91 | 269 | 5.0 | 6.0 | 0.00 | 0.00 | 0.00 | 63 | 1012.2 |
| 20260902210550 | 91 | 274 | 2.0 | 6.0 | 0.00 | 0.00 | 0.00 | 64 | 1012.5 |
| 20260902210103 | 91 | 265 | 4.0 | 6.0 | 0.00 | 0.00 | 0.00 | 63 | 1012.9 |
| 20260902205550 | 91 | 235 | 4.0 | 6.0 | 0.00 | 0.00 | 0.00 | 64 | 1012.5 |
| 20260902205048 | 91 | 256 | 2.0 | 6.0 | 0.00 | 0.00 | 0.00 | 62 | 1012.5 |
| 20260902204547 | 91 | 233 | 2.0 | 5.0 | 0.00 | 0.00 | 0.00 | 63 | 1012.5 |
| 20260902204047 | 91 | 251 | 4.0 | 5.0 | 0.00 | 0.00 | 0.00 | 63 | 1012.5 |
| 20260902203546 | 92 | 277 | 2.0 | 6.0 | 0.00 | 0.00 | 0.00 | 63 | 1012.5 |
| 20260902203046 | 92 | 262 | 1.0 | 6.0 | 0.00 | 0.00 | 0.00 | 62 | 1012.5 |
| 20260902202545 | 92 | 258 | 4.0 | 5.0 | 0.00 | 0.00 | 0.00 | 64 | 1012.5 |
| 20260902202045 | 91 | 227 | 3.0 | 5.0 | 0.00 | 0.00 | 0.00 | 63 | 1012.9 |
| 20260902201545 | 91 | 234 | 3.0 | 7.0 | 0.00 | 0.00 | 0.00 | 61 | 1012.5 |
| 20260902201044 | 91 | 254 | 4.0 | 7.0 | 0.00 | 0.00 | 0.00 | 62 | 1012.5 |
| 20260902200543 | 91 | 242 | 4.0 | 7.0 | 0.00 | 0.00 | 0.00 | 65 | 1012.5 |
| 20260902200042 | 91 | 236 | 2.0 | 7.0 | 0.00 | 0.00 | 0.00 | 65 | 1012.5 |
| 20260902195803 | 91 | 255 | 6.0 | 6.0 | 0.00 | 0.00 | 0.00 | 63 | 1012.9 |
| 20260902195041 | 91 | 223 | 2.0 | 7.0 | 0.00 | 0.00 | 0.00 | 63 | 1012.9 |
| 20260902194543 | 91 | 248 | 5.0 | 7.0 | 0.00 | 0.00 | 0.00 | 58 | 1012.9 |
| 20260902194041 | 91 | 241 | 4.0 | 10.0 | 0.00 | 0.00 | 0.00 | 61 | 1012.9 |
| 20260902193541 | 91 | 246 | 6.0 | 6.0 | 0.00 | 0.00 | 0.00 | 66 | 1012.9 |
| 20260902193039 | 91 | 241 | 0.0 | 6.0 | 0.00 | 0.00 | 0.00 | 61 | 1012.9 |
| 20260902192540 | 91 | 236 | 2.0 | 6.0 | 0.00 | 0.00 | 0.00 | 61 | 1012.9 |
| 20260902192039 | 91 | 282 | 5.0 | 6.0 | 0.00 | 0.00 | 0.00 | 63 | 1013.3 |
| 20260902191537 | 91 | 242 | 4.0 | 6.0 | 0.00 | 0.00 | 0.00 | 65 | 1013.3 |
| 20260902191039 | 91 | 232 | 2.0 | 6.0 | 0.00 | 0.00 | 0.00 | 64 | 1013.3 |
| 20260902190538 | 91 | 213 | 2.0 | 6.0 | 0.00 | 0.00 | 0.00 | 68 | 1013.3 |
| 20260902190039 | 90 | 236 | 2.0 | 7.0 | 0.00 | 0.00 | 0.00 | 67 | 1013.3 |
| 20260902190025 | 91 | 266 | 2.0 | 9.0 | 0.00 | 0.00 | 0.00 | 68 | 1013.3 |
| 20260902185037 | 90 | 219 | 3.0 | 9.0 | 0.00 | 0.00 | 0.00 | 66 | 1012.9 |
| 20260902184537 | 90 | 237 | 2.0 | 5.0 | 0.00 | 0.00 | 0.00 | 67 | 1013.3 |
| 20260902184035 | 90 | 194 | 2.0 | 6.0 | 0.00 | 0.00 | 0.00 | 69 | 1013.3 |
| 20260902183533 | 90 | 226 | 4.0 | 7.0 | 0.00 | 0.00 | 0.00 | 69 | 1013.3 |
| 20260902183035 | 90 | 256 | 4.0 | 7.0 | 0.00 | 0.00 | 0.00 | 68 | 1013.3 |
| 20260902183021 | 90 | 236 | 2.0 | 6.0 | 0.00 | 0.00 | 0.00 | 68 | 1013.3 |
| 20260902182032 | 90 | 257 | 2.0 | 7.0 | 0.00 | 0.00 | 0.00 | 68 | 1013.3 |
| 20260902181533 | 89 | 234 | 3.0 | 7.0 | 0.00 | 0.00 | 0.00 | 69 | 1013.7 |
| 20260902181031 | 89 | 255 | 2.0 | 7.0 | 0.00 | 0.00 | 0.00 | 68 | 1013.3 |
| 20260902180531 | 89 | 241 | 4.0 | 7.0 | 0.00 | 0.00 | 0.00 | 67 | 1013.3 |
| 20260902180031 | 89 | 250 | 4.0 | 7.0 | 0.00 | 0.00 | 0.00 | 69 | 1013.3 |
| 20260902175529 | 89 | 259 | 4.0 | 7.0 | 0.00 | 0.00 | 0.00 | 68 | 1013.3 |
| 20260902175029 | 89 | 235 | 4.0 | 6.0 | 0.00 | 0.00 | 0.00 | 68 | 1013.7 |
| 20260902174529 | 88 | 233 | 4.0 | 6.0 | 0.00 | 0.00 | 0.00 | 70 | 1013.3 |
| 20260902174029 | 88 | 238 | 2.0 | 5.0 | 0.00 | 0.00 | 0.00 | 71 | 1013.3 |
| 20260902173749 | 87 | 259 | 2.0 | 6.0 | 0.00 | 0.00 | 0.00 | 70 | 1013.7 |
| 20260902173028 | 87 | 233 | 3.0 | 6.0 | 0.00 | 0.00 | 0.00 | 70 | 1013.7 |
| 20260902172751 | 88 | 234 | 4.0 | 6.0 | 0.00 | 0.00 | 0.00 | 67 | 1013.7 |
| 20260902172025 | 88 | 245 | 4.0 | 6.0 | 0.00 | 0.00 | 0.00 | 69 | 1013.7 |
| 20260902171527 | 88 | 231 | 4.0 | 6.0 | 0.00 | 0.00 | 0.00 | 72 | 1013.7 |
| 20260902171026 | 88 | 234 | 3.0 | 6.0 | 0.00 | 0.00 | 0.00 | 71 | 1013.7 |
| 20260902170525 | 87 | 253 | 3.0 | 7.0 | 0.00 | 0.00 | 0.00 | 71 | 1013.7 |
| 20260902170024 | 87 | 259 | 2.0 | 7.0 | 0.00 | 0.00 | 0.00 | 69 | 1013.7 |
| 20260902165525 | 87 | 213 | 2.0 | 4.0 | 0.00 | 0.00 | 0.00 | 70 | 1013.7 |
| 20260902165024 | 87 | 261 | 1.0 | 5.0 | 0.00 | 0.00 | 0.00 | 69 | 1014.0 |
| 20260902164524 | 87 | 235 | 3.0 | 5.0 | 0.00 | 0.00 | 0.00 | 70 | 1013.7 |
| 20260902164037 | 87 | 195 | 4.0 | 6.0 | 0.00 | 0.00 | 0.00 | 73 | 1014.0 |
| 20260902163521 | 87 | 220 | 3.0 | 6.0 | 0.00 | 0.00 | 0.00 | 71 | 1013.7 |
| 20260902163020 | 86 | 233 | 3.0 | 5.0 | 0.00 | 0.00 | 0.00 | 73 | 1013.7 |
| 20260902162521 | 86 | 235 | 3.0 | 5.0 | 0.00 | 0.00 | 0.00 | 72 | 1014.0 |
| 20260902162022 | 86 | 254 | 4.0 | 5.0 | 0.00 | 0.00 | 0.00 | 71 | 1014.0 |
| 20260902161520 | 85 | 211 | 3.0 | 5.0 | 0.00 | 0.00 | 0.00 | 74 | 1014.0 |
| 20260902161245 | 85 | 237 | 2.0 | 5.0 | 0.00 | 0.00 | 0.00 | 73 | 1014.0 |
| 20260902160518 | 85 | 259 | 2.0 | 5.0 | 0.00 | 0.00 | 0.00 | 74 | 1014.0 |
| 20260902160020 | 84 | 227 | 2.0 | 4.0 | 0.00 | 0.00 | 0.00 | 75 | 1014.0 |
| 20260902155519 | 84 | 266 | 4.0 | 4.0 | 0.00 | 0.00 | 0.00 | 75 | 1014.0 |
| 20260902155018 | 84 | 240 | 2.0 | 4.0 | 0.00 | 0.00 | 0.00 | 74 | 1014.0 |
| 20260902154519 | 84 | 213 | 3.0 | 4.0 | 0.00 | 0.00 | 0.00 | 77 | 1014.0 |
| 20260902154018 | 83 | 216 | 3.0 | 5.0 | 0.00 | 0.00 | 0.00 | 75 | 1013.7 |
| 20260902153746 | 83 | 242 | 3.0 | 5.0 | 0.00 | 0.00 | 0.00 | 77 | 1014.0 |
| 20260902153106 | 83 | 274 | 4.0 | 5.0 | 0.00 | 0.00 | 0.00 | 76 | 1014.0 |
| 20260902152515 | 83 | 239 | 3.0 | 5.0 | 0.00 | 0.00 | 0.00 | 75 | 1014.0 |
| 20260902152014 | 83 | 207 | 3.0 | 4.0 | 0.00 | 0.00 | 0.00 | 75 | 1014.0 |
| 20260902151514 | 82 | 249 | 3.0 | 4.0 | 0.00 | 0.00 | 0.00 | 76 | 1014.3 |
| 20260902151014 | 82 | 251 | 3.0 | 3.0 | 0.00 | 0.00 | 0.00 | 79 | 1014.3 |
| 20260902150739 | 82 | 250 | 3.0 | 3.0 | 0.00 | 0.00 | 0.00 | 77 | 1014.3 |
| 20260902150011 | 81 | 242 | 1.0 | 3.0 | 0.00 | 0.00 | 0.00 | 77 | 1014.3 |
| 20260902145513 | 81 | 304 | 1.0 | 4.0 | 0.00 | 0.00 | 0.00 | 79 | 1014.3 |
| 20260902145012 | 81 | 275 | 0.0 | 5.0 | 0.00 | 0.00 | 0.00 | 79 | 1014.7 |
| 20260902144511 | 80 | 21 | 0.0 | 5.0 | 0.00 | 0.00 | 0.00 | 79 | 1014.3 |
| 20260902144009 | 80 | 265 | 0.0 | 3.0 | 0.00 | 0.00 | 0.00 | 81 | 1014.3 |
| 20260902143510 | 80 | 225 | 2.0 | 3.0 | 0.00 | 0.00 | 0.00 | 80 | 1014.3 |
| 20260902143009 | 80 | 255 | 0.0 | 4.0 | 0.00 | 0.00 | 0.00 | 80 | 1014.3 |
| 20260902142511 | 79 | 314 | 2.0 | 4.0 | 0.00 | 0.00 | 0.00 | 81 | 1014.7 |
| 20260902142010 | 79 | 206 | 1.0 | 3.0 | 0.00 | 0.00 | 0.00 | 84 | 1014.3 |
| 20260902141508 | 79 | 307 | 1.0 | 3.0 | 0.00 | 0.00 | 0.00 | 83 | 1014.3 |
| 20260902141006 | 79 | 289 | 1.0 | 3.0 | 0.00 | 0.00 | 0.00 | 83 | 1014.3 |
| 20260902140735 | 78 | 219 | 1.0 | 5.0 | 0.00 | 0.00 | 0.00 | 84 | 1014.3 |
| 20260902140006 | 78 | 290 | 0.0 | 5.0 | 0.00 | 0.00 | 0.00 | 83 | 1014.7 |
| 20260902135504 | 78 | 169 | 3.0 | 4.0 | 0.00 | 0.00 | 0.00 | 84 | 1014.3 |
| 20260902135004 | 78 | 357 | 2.0 | 3.0 | 0.00 | 0.00 | 0.00 | 84 | 1014.7 |
| 20260902134507 | 78 | 238 | 1.0 | 4.0 | 0.00 | 0.00 | 0.00 | 84 | 1014.3 |
| 20260902134005 | 78 | 185 | 1.0 | 5.0 | 0.00 | 0.00 | 0.00 | 83 | 1014.3 |
| 20260902133503 | 78 | 323 | 4.0 | 5.0 | 0.00 | 0.00 | 0.00 | 83 | 1014.7 |
| 20260902133003 | 78 | 250 | 2.0 | 6.0 | 0.00 | 0.00 | 0.00 | 84 | 1014.3 |
| 20260902132730 | 78 | 251 | 0.0 | 6.0 | 0.00 | 0.00 | 0.00 | 84 | 1014.7 |
| 20260902132001 | 77 | 266 | 3.0 | 4.0 | 0.00 | 0.00 | 0.00 | 84 | 1014.3 |
| 20260902131502 | 77 | 249 | 3.0 | 4.0 | 0.00 | 0.00 | 0.00 | 85 | 1014.3 |
| 20260902131000 | 77 | 215 | 2.0 | 4.0 | 0.00 | 0.00 | 0.00 | 85 | 1014.3 |
| 20260902130500 | 76 | 165 | 1.0 | 4.0 | 0.00 | 0.00 | 0.00 | 85 | 1014.3 |
| 20260902125958 | 76 | 255 | 1.0 | 4.0 | 0.00 | 0.00 | 0.00 | 85 | 1014.3 |
| 20260902125459 | 76 | 236 | 4.0 | 4.0 | 0.00 | 0.00 | 0.00 | 86 | 1014.3 |
| 20260902124959 | 76 | 240 | 2.0 | 4.0 | 0.00 | 0.00 | 0.00 | 86 | 1014.3 |
| 20260902124459 | 75 | 232 | 2.0 | 5.0 | 0.00 | 0.00 | 0.00 | 86 | 1014.3 |
| 20260902124216 | 75 | 243 | 3.0 | 5.0 | 0.00 | 0.00 | 0.00 | 86 | 1014.3 |
| 20260902123458 | 75 | 260 | 2.0 | 4.0 | 0.00 | 0.00 | 0.00 | 86 | 1014.3 |
| 20260902123221 | 75 | 238 | 2.0 | 4.0 | 0.00 | 0.00 | 0.00 | 86 | 1014.3 |
| 20260902122456 | 75 | 269 | 1.0 | 4.0 | 0.00 | 0.00 | 0.00 | 86 | 1014.0 |
| 20260902121956 | 75 | 236 | 2.0 | 4.0 | 0.00 | 0.00 | 0.00 | 86 | 1014.3 |
| 20260902121455 | 75 | 264 | 2.0 | 4.0 | 0.00 | 0.00 | 0.00 | 86 | 1014.3 |
| 20260902120954 | 75 | 218 | 1.0 | 4.0 | 0.00 | 0.00 | 0.00 | 86 | 1014.0 |
| 20260902120453 | 74 | 252 | 2.0 | 4.0 | 0.00 | 0.00 | 0.00 | 86 | 1014.3 |
| 20260902120219 | 74 | 281 | 2.0 | 3.0 | 0.00 | 0.00 | 0.00 | 86 | 1014.0 |
| 20260902115453 | 74 | 249 | 2.0 | 3.0 | 0.00 | 0.00 | 0.00 | 87 | 1014.0 |
| 20260902114952 | 74 | 198 | 0.0 | 3.0 | 0.00 | 0.00 | 0.00 | 87 | 1013.7 |
| 20260902114451 | 74 | 203 | 0.0 | 4.0 | 0.00 | 0.00 | 0.00 | 88 | 1013.7 |
| 20260902114434 | 74 | 241 | 2.0 | 4.0 | 0.00 | 0.00 | 0.00 | 88 | 1014.0 |
| 20260902113451 | 74 | 224 | 0.0 | 4.0 | 0.00 | 0.00 | 0.00 | 88 | 1013.7 |
| 20260902112950 | 74 | 237 | 3.0 | 4.0 | 0.00 | 0.00 | 0.00 | 88 | 1014.0 |
| 20260902112715 | 74 | 207 | 1.0 | 4.0 | 0.00 | 0.00 | 0.00 | 89 | 1014.0 |
| 20260902111949 | 74 | 231 | 2.0 | 3.0 | 0.00 | 0.00 | 0.00 | 89 | 1013.7 |
| 20260902111708 | 74 | 43 | 1.0 | 3.0 | 0.00 | 0.00 | 0.00 | 89 | 1014.0 |
| 20260902110950 | 74 | 235 | 2.0 | 3.0 | 0.00 | 0.00 | 0.00 | 89 | 1014.0 |
| 20260902110447 | 74 | 223 | 1.0 | 4.0 | 0.00 | 0.00 | 0.00 | 90 | 1014.0 |
| 20260902105946 | 74 | 227 | 2.0 | 4.0 | 0.00 | 0.00 | 0.00 | 89 | 1014.0 |
| 20260902105446 | 74 | 226 | 2.0 | 4.0 | 0.00 | 0.00 | 0.00 | 89 | 1014.0 |
| 20260902104946 | 74 | 235 | 2.0 | 4.0 | 0.00 | 0.00 | 0.00 | 89 | 1014.0 |
| 20260902104447 | 74 | 219 | 2.0 | 5.0 | 0.00 | 0.00 | 0.00 | 89 | 1014.3 |
| 20260902103945 | 74 | 210 | 2.0 | 5.0 | 0.00 | 0.00 | 0.00 | 89 | 1014.0 |
| 20260902103445 | 74 | 263 | 1.0 | 4.0 | 0.00 | 0.00 | 0.00 | 88 | 1014.3 |
| 20260902103209 | 74 | 249 | 2.0 | 4.0 | 0.00 | 0.00 | 0.00 | 88 | 1014.3 |
| 20260902102444 | 74 | 235 | 1.0 | 4.0 | 0.00 | 0.00 | 0.00 | 88 | 1014.0 |
| 20260902101944 | 74 | 231 | 2.0 | 3.0 | 0.00 | 0.00 | 0.00 | 88 | 1014.0 |
| 20260902101442 | 75 | 219 | 2.0 | 4.0 | 0.00 | 0.00 | 0.00 | 88 | 1014.0 |
| 20260902100942 | 75 | 241 | 2.0 | 4.0 | 0.00 | 0.00 | 0.00 | 88 | 1014.3 |
| 20260902100442 | 75 | 264 | 3.0 | 4.0 | 0.00 | 0.00 | 0.00 | 87 | 1014.0 |
| 20260902095942 | 75 | 253 | 3.0 | 4.0 | 0.00 | 0.00 | 0.00 | 87 | 1014.0 |
| 20260902095440 | 75 | 241 | 0.0 | 4.0 | 0.00 | 0.00 | 0.00 | 87 | 1014.0 |
| 20260902094939 | 75 | 265 | 1.0 | 4.0 | 0.00 | 0.00 | 0.00 | 87 | 1014.0 |
| 20260902094439 | 75 | 235 | 2.0 | 4.0 | 0.00 | 0.00 | 0.00 | 86 | 1014.3 |
| 20260902094200 | 75 | 213 | 1.0 | 4.0 | 0.00 | 0.00 | 0.00 | 86 | 1014.3 |
| 20260902093439 | 76 | 236 | 2.0 | 5.0 | 0.00 | 0.00 | 0.00 | 86 | 1014.3 |
| 20260902093204 | 76 | 256 | 2.0 | 5.0 | 0.00 | 0.00 | 0.00 | 86 | 1014.0 |
| 20260902092436 | 76 | 250 | 2.0 | 5.0 | 0.00 | 0.00 | 0.00 | 86 | 1014.3 |
| 20260902091936 | 76 | 234 | 2.0 | 4.0 | 0.00 | 0.00 | 0.00 | 86 | 1014.0 |
| 20260902091435 | 76 | 260 | 1.0 | 3.0 | 0.00 | 0.00 | 0.00 | 86 | 1014.0 |
| 20260902090936 | 76 | 259 | 1.0 | 3.0 | 0.00 | 0.00 | 0.00 | 86 | 1014.0 |
| 20260902090436 | 76 | 236 | 2.0 | 4.0 | 0.00 | 0.00 | 0.00 | 86 | 1014.0 |
| 20260902085934 | 76 | 263 | 2.0 | 4.0 | 0.00 | 0.00 | 0.00 | 86 | 1014.0 |
| 20260902085434 | 76 | 222 | 2.0 | 3.0 | 0.00 | 0.00 | 0.00 | 86 | 1014.0 |
| 20260902084934 | 76 | 225 | 2.0 | 2.0 | 0.00 | 0.00 | 0.00 | 85 | 1013.7 |
| 20260902084433 | 76 | 237 | 1.0 | 3.0 | 0.00 | 0.00 | 0.00 | 85 | 1014.0 |
| 20260902084157 | 76 | 225 | 2.0 | 3.0 | 0.00 | 0.00 | 0.00 | 85 | 1013.7 |
| 20260902083431 | 76 | 238 | 2.0 | 4.0 | 0.00 | 0.00 | 0.00 | 85 | 1013.7 |
| 20260902082933 | 76 | 257 | 1.0 | 4.0 | 0.00 | 0.00 | 0.00 | 85 | 1013.7 |
| 20260902082434 | 76 | 242 | 2.0 | 4.0 | 0.00 | 0.00 | 0.00 | 85 | 1013.7 |
| 20260902081930 | 76 | 236 | 2.0 | 4.0 | 0.00 | 0.00 | 0.00 | 85 | 1013.7 |
| 20260902081430 | 76 | 221 | 2.0 | 3.0 | 0.00 | 0.00 | 0.00 | 85 | 1013.7 |
| 20260902080929 | 76 | 231 | 2.0 | 3.0 | 0.00 | 0.00 | 0.00 | 85 | 1013.7 |
| 20260902080430 | 76 | 219 | 2.0 | 3.0 | 0.00 | 0.00 | 0.00 | 85 | 1013.7 |
| 20260902075928 | 76 | 224 | 2.0 | 3.0 | 0.00 | 0.00 | 0.00 | 85 | 1013.7 |
| 20260902075427 | 76 | 245 | 2.0 | 4.0 | 0.00 | 0.00 | 0.00 | 85 | 1013.7 |
| 20260902075146 | 76 | 228 | 2.0 | 4.0 | 0.00 | 0.00 | 0.00 | 85 | 1013.7 |
| 20260902074430 | 76 | 219 | 2.0 | 3.0 | 0.00 | 0.00 | 0.00 | 86 | 1013.7 |
| 20260902073927 | 76 | 213 | 2.0 | 3.0 | 0.00 | 0.00 | 0.00 | 86 | 1013.7 |
| 20260902073426 | 76 | 219 | 2.0 | 3.0 | 0.00 | 0.00 | 0.00 | 86 | 1013.7 |
| 20260902072927 | 76 | 229 | 1.0 | 3.0 | 0.00 | 0.00 | 0.00 | 86 | 1013.7 |
| 20260902072426 | 76 | 235 | 2.0 | 4.0 | 0.00 | 0.00 | 0.00 | 86 | 1013.7 |
| 20260902071925 | 76 | 237 | 3.0 | 4.0 | 0.00 | 0.00 | 0.00 | 86 | 1013.7 |
| 20260902071425 | 76 | 246 | 2.0 | 3.0 | 0.00 | 0.00 | 0.00 | 86 | 1013.7 |
| 20260902070937 | 76 | 229 | 1.0 | 4.0 | 0.00 | 0.00 | 0.00 | 86 | 1013.7 |
| 20260902070654 | 76 | 217 | 2.0 | 4.0 | 0.00 | 0.00 | 0.00 | 86 | 1013.7 |
| 20260902070143 | 76 | 241 | 2.0 | 3.0 | 0.00 | 0.00 | 0.00 | 87 | 1014.0 |
| 20260902065423 | 76 | 227 | 2.0 | 3.0 | 0.00 | 0.00 | 0.00 | 87 | 1013.7 |
| 20260902064922 | 76 | 236 | 2.0 | 4.0 | 0.00 | 0.00 | 0.00 | 87 | 1013.7 |
| 20260902064421 | 76 | 220 | 2.0 | 5.0 | 0.00 | 0.00 | 0.00 | 87 | 1013.7 |
| 20260902064146 | 76 | 231 | 2.0 | 5.0 | 0.00 | 0.00 | 0.00 | 88 | 1013.7 |
| 20260902063419 | 76 | 220 | 2.0 | 4.0 | 0.00 | 0.00 | 0.00 | 88 | 1014.0 |
| 20260902062921 | 76 | 222 | 2.0 | 4.0 | 0.00 | 0.00 | 0.00 | 88 | 1013.7 |
| 20260902062420 | 76 | 231 | 2.0 | 5.0 | 0.00 | 0.00 | 0.00 | 88 | 1013.7 |
| 20260902061921 | 77 | 223 | 3.0 | 5.0 | 0.00 | 0.00 | 0.00 | 88 | 1013.7 |
| 20260902061839 | 77 | 252 | 4.0 | 4.0 | 0.00 | 0.00 | 0.00 | 88 | 1013.7 |
| 20260902061513 | 77 | 253 | 2.0 | 4.0 | 0.00 | 0.00 | 0.00 | 88 | 1014.0 |
| 20260902060417 | 77 | 238 | 2.0 | 4.0 | 0.00 | 0.00 | 0.00 | 87 | 1014.0 |
| 20260902055920 | 77 | 267 | 2.0 | 4.0 | 0.00 | 0.00 | 0.00 | 87 | 1014.0 |
| 20260902055905 | 77 | 216 | 2.0 | 4.0 | 0.00 | 0.00 | 0.00 | 87 | 1013.7 |
| 20260902054916 | 77 | 246 | 2.0 | 4.0 | 0.00 | 0.00 | 0.00 | 88 | 1013.7 |
| 20260902054633 | 77 | 262 | 3.0 | 4.0 | 0.00 | 0.00 | 0.00 | 88 | 1013.7 |
| 20260902053916 | 77 | 223 | 2.0 | 4.0 | 0.00 | 0.00 | 0.00 | 88 | 1014.0 |
| 20260902053413 | 77 | 210 | 2.0 | 4.0 | 0.00 | 0.00 | 0.00 | 88 | 1014.0 |
| 20260902052914 | 77 | 251 | 2.0 | 3.0 | 0.00 | 0.00 | 0.00 | 88 | 1013.7 |
| 20260902052414 | 78 | 230 | 2.0 | 3.0 | 0.00 | 0.00 | 0.00 | 88 | 1013.7 |
| 20260902051915 | 77 | 228 | 2.0 | 3.0 | 0.00 | 0.00 | 0.00 | 87 | 1013.7 |
| 20260902051642 | 78 | 261 | 0.0 | 3.0 | 0.00 | 0.00 | 0.00 | 87 | 1013.7 |
| 20260902050911 | 78 | 231 | 0.0 | 3.0 | 0.00 | 0.00 | 0.00 | 87 | 1013.7 |
| 20260902050410 | 77 | 228 | 0.0 | 3.0 | 0.00 | 0.00 | 0.00 | 87 | 1013.7 |
| 20260902050131 | 78 | 201 | 1.0 | 3.0 | 0.00 | 0.00 | 0.00 | 88 | 1014.0 |
| 20260902045410 | 78 | 236 | 1.0 | 3.0 | 0.00 | 0.00 | 0.00 | 88 | 1014.0 |
| 20260902044910 | 78 | 224 | 2.0 | 3.0 | 0.00 | 0.00 | 0.00 | 88 | 1014.0 |
| 20260902044410 | 78 | 229 | 2.0 | 2.0 | 0.00 | 0.00 | 0.00 | 88 | 1014.0 |
| 20260902043910 | 78 | 209 | 1.0 | 2.0 | 0.00 | 0.00 | 0.00 | 88 | 1014.0 |
| 20260902043421 | 78 | 234 | 2.0 | 2.0 | 0.00 | 0.00 | 0.00 | 88 | 1014.0 |
| 20260902042910 | 78 | 222 | 2.0 | 3.0 | 0.00 | 0.00 | 0.00 | 89 | 1013.7 |
| 20260902042406 | 78 | 240 | 2.0 | 3.0 | 0.00 | 0.00 | 0.00 | 89 | 1013.7 |
| 20260902041910 | 78 | 226 | 2.0 | 2.0 | 0.00 | 0.00 | 0.00 | 89 | 1013.7 |
| 20260902041406 | 78 | 196 | 0.0 | 2.0 | 0.00 | 0.00 | 0.00 | 89 | 1013.7 |
| 20260902040904 | 78 | 237 | 1.0 | 3.0 | 0.00 | 0.00 | 0.00 | 89 | 1014.0 |
| 20260902040404 | 78 | 229 | 0.0 | 2.0 | 0.00 | 0.00 | 0.00 | 88 | 1014.0 |
| 20260902035904 | 78 | 230 | 0.0 | 2.0 | 0.00 | 0.00 | 0.00 | 88 | 1013.7 |
| 20260902035404 | 78 | 236 | 0.0 | 2.0 | 0.00 | 0.00 | 0.00 | 88 | 1014.0 |
| 20260902034904 | 78 | 228 | 2.0 | 3.0 | 0.00 | 0.00 | 0.00 | 88 | 1014.0 |
| 20260902034405 | 79 | 236 | 0.0 | 3.0 | 0.00 | 0.00 | 0.00 | 88 | 1014.0 |
| 20260902033902 | 79 | 221 | 2.0 | 3.0 | 0.00 | 0.00 | 0.00 | 87 | 1014.0 |
| 20260902033401 | 79 | 235 | 3.0 | 3.0 | 0.00 | 0.00 | 0.00 | 87 | 1014.3 |
| 20260902033120 | 79 | 230 | 3.0 | 3.0 | 0.00 | 0.00 | 0.00 | 87 | 1014.0 |
| 20260902032400 | 79 | 223 | 2.0 | 3.0 | 0.00 | 0.00 | 0.00 | 87 | 1014.0 |
| 20260902031901 | 79 | 234 | 2.0 | 3.0 | 0.00 | 0.00 | 0.00 | 87 | 1014.0 |
| 20260902031402 | 79 | 243 | 1.0 | 3.0 | 0.00 | 0.00 | 0.00 | 87 | 1014.0 |
| 20260902030900 | 79 | 246 | 2.0 | 3.0 | 0.00 | 0.00 | 0.00 | 87 | 1014.0 |
| 20260902030400 | 79 | 236 | 2.0 | 3.0 | 0.00 | 0.00 | 0.00 | 87 | 1014.0 |
| 20260902025900 | 79 | 239 | 2.0 | 3.0 | 0.00 | 0.00 | 0.00 | 87 | 1014.0 |
| 20260902025359 | 79 | 257 | 2.0 | 3.0 | 0.00 | 0.00 | 0.00 | 87 | 1014.0 |
| 20260902024857 | 80 | 253 | 2.0 | 3.0 | 0.00 | 0.00 | 0.00 | 87 | 1014.0 |
| 20260902024358 | 80 | 231 | 2.0 | 2.0 | 0.00 | 0.00 | 0.00 | 87 | 1014.0 |
| 20260902023856 | 80 | 264 | 2.0 | 2.0 | 0.00 | 0.00 | 0.00 | 87 | 1014.0 |
| 20260902023616 | 80 | 258 | 2.0 | 2.0 | 0.00 | 0.00 | 0.00 | 87 | 1014.3 |
| 20260902022856 | 80 | 249 | 2.0 | 2.0 | 0.00 | 0.00 | 0.00 | 87 | 1014.3 |
| 20260902022356 | 80 | 249 | 2.0 | 3.0 | 0.00 | 0.00 | 0.00 | 87 | 1014.0 |
| 20260902021856 | 80 | 254 | 2.0 | 3.0 | 0.00 | 0.00 | 0.00 | 87 | 1014.0 |